﻿Дата;Google;RedTram;AdRiver;ReadMe.ru
2014-02-05;23;0;0;0
2014-02-04;44;0;0;0
2014-02-03;48;0;0;0
2014-02-02;43;0;0;0
2014-02-01;25;0;0;0
2014-01-31;12;0;0;0
2014-01-20;21;0;0;0
2014-01-19;31;0;0;0
2014-01-18;33;0;0;0
2014-01-17;27;0;0;0
2014-01-16;23;0;0;0
2014-01-15;40;0;0;0
2014-01-14;34;0;0;0
2014-01-13;47;0;0;0
2014-01-12;31;0;0;0
2014-01-11;35;0;0;0
2014-01-10;12;0;0;0
2014-01-08;5;0;0;0
2014-01-07;27;0;0;0
2014-01-06;34;0;0;0
2014-01-05;31;0;0;0
2014-01-04;29;0;0;0
2014-01-03;28;0;0;0
2014-01-02;41;0;0;0
2014-01-01;35;0;0;0
2013-12-31;34;0;0;0
2013-12-30;32;0;0;0
2013-12-25;67;0;0;0
2013-12-24;65;0;0;0
2013-12-23;69;0;0;0
2013-12-22;68;0;0;0
2013-12-21;49;0;0;0
2013-12-20;51;0;0;0
2013-12-19;41;0;0;0
2013-12-18;20;0;0;0
2013-12-17;1;0;0;0
2013-12-16;4;0;0;0
2013-09-16;1;0;0;0
2013-09-15;15;0;0;0
2013-09-14;12;0;0;0
2013-09-13;8;0;0;0
2013-09-12;9;0;0;0
2013-09-11;7;0;0;0
2013-09-10;9;0;0;0
2013-09-09;7;0;0;1
2013-09-08;8;0;0;0
2013-09-07;11;0;0;0
2013-09-06;18;0;0;0
2013-09-05;7;0;0;0
2013-09-04;10;0;0;0
2013-07-24;1;0;0;0
2013-07-23;2;0;0;0
2013-07-22;12;0;0;0
2013-07-21;12;0;0;0
2013-07-19;2;0;0;0
2013-07-18;7;0;0;0
2013-07-17;1;0;0;0
2013-07-16;6;0;0;0
2013-07-15;2;0;0;0
2013-07-14;5;0;0;0
2013-07-13;8;0;0;0
2013-07-12;4;0;0;0
2013-07-11;3;0;0;0
2013-07-09;2;0;0;0
2013-07-08;6;0;0;0
2013-07-07;9;0;0;0
2013-07-06;11;0;0;0
2013-07-05;12;0;0;0
2013-07-04;7;0;0;0
2013-06-27;2;0;0;0
2013-06-26;1;0;0;0
2013-06-25;1;0;0;0
2013-06-23;1;0;0;0
2013-06-22;5;0;0;0
2013-06-21;2;0;0;0
2013-06-19;10;0;0;0
2013-06-18;6;0;0;0
2013-06-17;4;0;0;0
2013-06-07;3;0;0;0
2013-06-03;4;0;0;0
2013-05-30;5;0;0;0
2013-05-29;2;0;0;0
2013-05-28;6;0;0;0
2013-05-27;5;0;0;0
2013-05-26;5;0;0;0
2013-05-25;28;0;0;0
2013-05-24;18;0;0;0
2013-05-23;11;0;0;0
2013-05-07;1;0;0;0
2013-05-06;2;0;0;0
2013-05-05;14;0;0;0
2013-05-04;6;0;0;0
2013-05-03;9;0;0;0
2013-05-02;9;0;0;0
2013-05-01;9;0;12;0
2013-04-30;8;0;14;0
2013-04-29;6;0;23;0
2013-04-28;8;0;13;0
2013-04-27;11;0;18;0
2013-04-26;5;0;16;0
2013-04-25;7;0;28;0
2013-04-24;5;0;23;0
2013-04-23;6;0;17;0
2013-04-22;8;0;27;0
2013-04-21;14;0;11;0
2013-04-20;11;0;15;0
2013-04-19;5;0;13;0
2013-04-18;11;0;13;0
2013-04-17;21;0;19;0
2013-04-16;0;0;21;0
2013-04-15;0;0;23;0
2013-04-14;0;0;21;0
2013-04-13;1;0;13;0
2013-04-12;1;0;26;0
2013-04-11;1;0;20;0
2013-04-10;4;0;27;0
2013-04-09;7;0;30;0
2013-04-08;8;0;22;0
2013-04-07;3;0;21;0
2013-04-06;8;0;23;0
2013-04-05;2;0;13;0
2013-04-04;7;0;5;0
2013-04-03;4;0;25;0
2013-04-02;5;0;29;0
2013-04-01;6;0;8;0
2013-03-31;9;0;22;0
2013-03-30;6;0;27;0
2013-03-29;2;0;36;0
2013-03-28;14;0;26;0
2013-03-27;4;0;26;0
2013-03-26;14;0;28;0
2013-03-25;10;0;18;0
2013-03-24;10;0;27;0
2013-03-23;28;0;23;0
2013-03-22;5;0;26;0
2013-03-21;7;0;29;0
2013-03-20;17;0;0;0
2013-03-19;1;0;3;0
2013-03-18;0;0;5;0
2013-03-17;0;0;8;0
2013-03-16;0;0;4;0
2013-03-15;0;0;1;0
2013-03-14;0;0;4;0
2013-03-13;0;0;4;0
2013-03-12;0;0;5;0
2013-03-11;0;0;1;0
2013-03-10;0;0;3;0
2013-03-09;0;0;5;0
2013-03-08;0;0;1;0
2013-03-07;0;0;3;0
2013-03-06;0;0;4;0
2013-03-05;0;0;3;0
2013-03-04;0;0;2;0
2013-03-03;0;0;1;0
2013-03-01;0;0;2;0
2013-02-28;3;0;0;0
2013-02-27;2;0;3;0
2013-02-26;0;0;2;0
2013-02-25;4;0;0;0
2013-02-24;1;0;1;0
2013-02-23;4;0;1;0
2013-02-22;2;0;0;0
2013-02-21;1;0;0;0
2013-02-20;6;0;1;0
2013-02-19;10;0;1;0
2013-02-18;9;0;0;0
2013-02-17;11;0;0;0
2013-02-16;15;0;3;0
2013-02-15;5;0;2;0
2013-02-14;21;0;1;0
2013-02-13;4;0;1;0
2013-02-12;7;0;0;0
2013-02-11;34;0;0;0
2013-02-10;11;0;0;0
2013-02-09;23;0;0;0
2013-02-08;1;0;0;0
2013-02-07;21;0;0;0
2013-02-06;10;0;0;0
2013-02-05;27;0;0;0
2013-02-04;68;0;0;0
2013-02-03;50;0;0;0
2013-02-02;32;0;0;0
2013-02-01;17;0;0;0
2013-01-31;17;0;0;0
2013-01-30;15;0;0;0
2013-01-29;12;0;0;0
2013-01-28;12;0;0;0
2013-01-27;13;0;0;0
2013-01-26;9;0;0;0
2013-01-25;21;0;0;0
2013-01-24;27;0;0;0
2013-01-23;7;0;0;0
2013-01-22;10;0;0;0
2013-01-21;8;0;0;0
2013-01-20;33;0;0;0
2013-01-19;59;0;0;0
2013-01-18;9;0;0;0
2013-01-17;11;0;0;0
2013-01-16;34;0;0;0
2013-01-15;10;0;0;0
2013-01-14;2;0;0;0
2013-01-13;6;0;0;0
2013-01-12;6;0;0;0
2013-01-11;3;0;0;0
2012-12-27;3;0;0;0
2012-12-26;7;0;0;0
2012-12-25;6;0;0;0
2012-12-24;12;0;0;0
2012-12-23;4;0;0;0
2012-12-22;4;0;0;0
2012-12-21;1;0;0;0
2012-12-20;6;0;0;0
2012-12-19;6;0;0;0
2012-12-18;4;0;0;0
2012-12-17;13;0;0;0
2012-12-16;9;0;0;0
2012-12-15;6;0;0;0
2012-12-14;5;0;0;0
2012-12-13;11;0;0;0
2012-12-12;10;0;0;0
2012-12-11;6;0;0;0
2012-12-10;7;0;0;0
2012-12-09;14;0;0;0
2012-12-08;35;0;0;0
2012-12-07;27;0;0;0
2012-12-06;44;0;0;0
2012-12-05;35;0;0;0
2012-12-04;48;0;0;0
2012-12-03;31;0;0;0
2012-12-02;32;0;0;0
2012-12-01;35;0;0;0
2012-11-30;35;0;0;0
2012-11-29;26;0;0;0
2012-11-28;49;0;0;0
2012-11-27;56;0;0;0
2012-11-26;55;0;0;0
2012-11-25;50;0;0;0
2012-11-24;57;0;0;0
2012-11-23;64;0;0;0
2012-11-22;42;0;0;0
2012-11-21;47;0;0;0
2012-11-20;53;0;0;0
2012-11-19;60;0;0;0
2012-11-18;70;0;0;0
2012-11-17;69;0;0;0
2012-11-16;49;0;0;0
2012-11-15;82;0;0;0
2012-11-14;64;0;0;0
2012-11-13;64;0;0;0
2012-11-12;75;0;0;0
2012-11-11;72;0;0;0
2012-11-10;51;0;0;0
2012-11-09;95;0;0;0
2012-11-08;66;0;0;0
2012-11-07;57;0;0;0
2012-11-06;84;0;0;0
2012-11-05;39;0;0;0
2012-11-04;45;0;0;0
2012-11-03;38;0;0;0
2012-11-02;57;0;0;0
2012-11-01;42;0;0;0
2012-10-31;56;0;0;0
2012-10-30;50;0;0;0
2012-10-29;31;0;0;0
2012-10-28;39;0;0;0
2012-10-27;27;0;0;0
2012-10-26;35;0;0;0
2012-10-25;42;0;0;0
2012-10-24;43;0;0;0
2012-10-23;42;0;0;0
2012-10-22;43;0;0;0
2012-10-21;26;0;0;0
2012-10-20;18;0;0;0
2012-10-19;27;0;0;0
2012-10-18;36;0;0;0
2012-10-17;30;0;0;0
2012-10-16;36;0;0;0
2012-10-15;30;0;0;0
2012-10-14;27;0;0;0
2012-10-13;21;0;0;0
2012-10-12;51;0;0;0
2012-10-11;25;0;0;0
2012-10-10;31;0;0;0
2012-10-09;35;0;0;0
2012-10-08;30;0;0;0
2012-10-07;15;0;0;0
2012-10-06;20;0;0;0
2012-10-05;16;0;0;0
2012-10-04;23;0;0;0
2012-10-03;35;0;0;0
2012-10-02;31;0;1;0
2012-10-01;36;0;0;0
2012-09-30;23;0;0;0
2012-09-29;26;0;0;0
2012-09-28;41;0;0;0
2012-09-27;45;0;0;0
2012-09-26;35;0;0;0
2012-09-25;55;0;0;0
2012-09-24;27;0;0;0
2012-09-23;31;0;0;0
2012-09-22;28;0;0;0
2012-09-21;55;0;0;0
2012-09-20;24;0;0;0
2012-09-19;53;0;0;0
2012-09-18;27;0;0;0
2012-09-17;34;0;0;0
2012-09-16;38;0;0;0
2012-09-15;27;0;0;0
2012-09-14;34;0;0;0
2012-09-13;37;0;0;0
2012-09-12;10;0;0;0
2012-09-11;5;0;0;0
2012-09-10;8;0;0;0
2012-09-09;11;0;0;0
2012-09-08;25;0;0;0
2012-09-07;19;0;0;0
2012-09-06;23;0;0;0
2012-09-05;20;0;0;0
2012-09-04;12;0;0;0
2012-09-03;8;0;0;0
2012-09-02;6;0;0;0
2012-09-01;4;0;0;0
2012-08-31;13;0;0;0
2012-08-30;4;0;0;0
2012-08-02;4;0;0;0
2012-08-01;7;0;0;0
2012-07-31;17;0;0;0
2012-07-30;24;0;0;0
2012-07-29;43;0;0;0
2012-07-28;55;0;0;0
2012-07-27;39;0;0;0
2012-07-26;21;0;0;0
2012-07-25;28;0;0;0
2012-07-24;25;0;0;0
2012-07-23;32;0;0;0
2012-07-22;31;0;0;0
2012-07-21;56;0;0;0
2012-07-20;37;0;0;0
2012-07-19;34;0;0;0
2012-07-18;21;0;0;0
2012-07-17;31;0;0;0
2012-07-16;24;0;0;0
2012-07-15;34;0;0;0
2012-07-14;46;0;0;0
2012-07-13;19;0;0;0
2012-07-12;40;0;0;0
2012-07-11;28;0;0;0
2012-07-10;15;0;0;0
2012-07-09;21;0;0;0
2012-07-08;24;0;0;0
2012-07-07;46;0;0;0
2012-07-06;19;0;0;0
2012-07-05;59;0;0;0
2012-07-04;44;0;0;0
2012-07-03;26;0;0;0
2012-07-02;23;0;0;0
2012-06-30;23;0;0;0
2012-06-29;46;0;0;0
2012-06-28;3;0;0;0
2012-06-27;9;0;0;0
2012-06-26;51;0;0;0
2012-06-25;64;0;0;0
2012-06-24;66;0;0;0
2012-06-23;51;0;0;0
2012-06-22;33;0;0;0
2012-06-21;40;0;0;0
2012-06-20;38;0;0;0
2012-06-19;30;0;0;0
2012-06-18;57;0;0;0
2012-06-17;45;0;0;0
2012-06-16;46;0;0;0
2012-06-15;50;0;0;0
2012-06-14;53;0;0;0
2012-06-13;48;0;0;0
2012-06-12;70;0;0;0
2012-06-11;66;0;0;0
2012-06-10;58;0;0;0
2012-06-09;43;0;0;0
2012-06-08;74;0;0;0
2012-06-07;49;0;0;0
2012-06-06;81;0;0;0
2012-06-05;98;0;0;0
2012-06-04;53;0;0;0
2012-06-03;53;0;0;0
2012-06-02;59;0;0;0
2012-06-01;92;0;0;0
2012-05-31;57;0;0;0
2012-05-30;60;0;0;0
2012-05-29;74;0;0;0
2012-05-28;84;0;0;0
2012-05-27;59;0;0;0
2012-05-26;42;0;0;0
2012-05-25;84;0;0;0
2012-05-24;72;0;0;0
2012-05-23;78;0;0;0
2012-05-22;72;0;0;0
2012-05-21;39;0;0;0
2012-05-20;49;0;0;0
2012-05-19;50;0;0;0
2012-05-18;48;0;0;0
2012-05-17;75;0;0;0
2012-05-16;82;0;0;0
2012-05-15;81;0;0;0
2012-05-14;31;0;0;0
2012-05-13;70;0;0;0
2012-05-12;56;0;0;0
2012-05-11;54;0;0;0
2012-05-10;39;0;0;0
2012-05-09;61;0;0;0
2012-05-08;59;0;0;0
2012-05-07;55;0;0;0
2012-05-06;51;0;0;0
2012-05-05;46;0;0;0
2012-05-04;66;0;0;0
2012-05-03;81;0;0;0
2012-05-02;72;0;0;0
2012-05-01;46;0;0;0
2012-04-30;55;0;0;0
2012-04-29;69;0;0;0
2012-04-28;48;0;0;0
2012-04-27;59;0;0;0
2012-04-26;65;0;0;0
2012-04-25;44;0;0;0
2012-04-24;38;0;0;0
2012-04-23;22;0;0;0
2012-04-22;7;0;0;0
2012-04-21;29;0;0;0
2012-04-20;58;0;0;0
2012-04-19;50;0;0;0
2012-04-18;30;0;0;0
2012-04-17;38;0;0;0
2012-04-16;34;0;0;0
2012-04-15;19;0;0;0
2012-04-14;20;0;0;0
2012-04-13;31;0;0;0
2012-04-12;57;0;0;0
2012-04-11;37;0;0;0
2012-04-10;34;0;0;0
2012-04-09;41;0;0;0
2012-04-08;5;0;0;0
2012-04-07;9;0;0;0
2012-04-06;59;0;0;0
2012-04-05;69;0;0;0
2012-04-04;60;0;0;0
2012-04-03;52;0;0;0
2012-04-02;59;0;0;0
2012-04-01;75;0;0;0
2012-03-31;71;0;0;0
2012-03-30;77;0;0;0
2012-03-29;76;0;0;0
2012-03-28;74;0;0;0
2012-03-27;95;0;0;0
2012-03-26;59;0;0;0
2012-03-25;62;0;0;0
2012-03-24;58;0;0;0
2012-03-23;65;0;0;0
2012-03-22;50;0;0;0
2012-03-21;61;0;0;0
2012-03-20;38;0;0;0
2012-03-19;30;0;0;0
2012-03-18;5;0;0;0
2012-03-17;5;0;0;0
2012-03-16;11;0;0;0
2012-03-15;4;0;0;0
2012-03-14;6;0;0;0
2012-03-13;6;0;0;0
2012-03-12;8;0;0;0
2012-03-11;12;0;0;0
2012-03-10;7;0;0;0
2012-03-09;1;0;0;0
2012-03-08;1;0;0;0
2012-03-07;3;0;0;0
2012-03-06;6;0;0;0
2012-03-05;11;0;0;0
2012-03-04;5;0;0;0
2012-03-03;2;0;0;0
2012-03-02;9;0;0;0
2012-03-01;7;0;0;0
2012-02-29;15;0;0;0
2012-02-28;32;0;0;0
2012-02-27;52;0;0;0
2012-02-26;14;0;0;0
2012-02-25;14;0;0;0
2012-02-24;101;0;0;0
2012-02-23;67;0;0;0
2012-02-22;61;0;0;0
2012-02-21;46;0;0;0
2012-02-20;75;0;0;0
2012-02-19;29;0;0;0
2012-02-18;2;0;0;0
2012-02-17;60;0;0;0
2012-02-16;36;0;0;0
2012-02-15;51;0;0;0
2012-02-14;70;1;0;0
2012-02-13;7;0;0;0
2012-02-12;3;0;0;0
2012-02-11;21;0;0;0
2012-02-10;75;0;0;0
2012-02-09;64;0;0;0
2012-02-08;82;0;0;0
2012-02-07;48;0;0;0
2012-02-06;55;0;0;0
2012-02-05;5;0;0;0
2012-02-04;40;0;0;0
2012-02-03;87;0;0;0
2012-02-02;56;0;0;0
2012-02-01;80;1;0;0
2012-01-31;28;0;0;0
2012-01-30;15;0;0;0
2012-01-29;30;0;0;0
2012-01-28;35;0;0;0
2012-01-27;64;0;0;0
2012-01-26;65;0;0;0
2012-01-25;64;0;0;0
2012-01-24;58;0;0;0
2012-01-23;45;0;0;0
2012-01-22;18;0;0;0
2012-01-21;70;0;0;0
2012-01-20;53;0;0;0
2012-01-19;43;0;0;0
2012-01-18;62;0;0;0
2012-01-17;62;0;0;0
2012-01-16;43;0;0;0
2012-01-15;42;0;0;0
2012-01-14;2;0;0;0
2012-01-13;62;0;0;0
2012-01-12;61;0;0;0
2012-01-11;47;1;0;0
2012-01-10;33;0;0;0
2012-01-09;25;1;0;0
2012-01-08;18;0;0;0
2012-01-07;6;0;0;0
2012-01-06;37;1;0;0
2012-01-05;47;0;0;0
2012-01-04;57;0;0;0
2012-01-03;69;0;0;0
2011-12-30;37;0;0;0
2011-12-29;38;0;0;0
2011-12-28;36;0;0;0
2011-12-27;57;0;0;0
2011-12-26;43;0;0;0
2011-12-25;12;0;0;0
2011-12-24;17;0;0;0
2011-12-23;48;0;0;0
2011-12-22;38;0;0;0
2011-12-21;52;0;0;0
2011-12-20;80;0;0;0
2011-12-19;61;0;0;0
2011-12-18;37;0;0;0
2011-12-17;30;0;0;0
2011-12-16;25;0;0;0
2011-12-15;16;0;0;0
2011-12-14;18;0;0;0
2011-12-13;22;0;0;0
2011-12-12;12;0;0;0
2011-12-11;27;1;0;0
2011-12-10;40;1;0;0
2011-12-09;70;0;0;0
2011-12-08;98;0;0;0
2011-12-07;67;0;0;0
2011-12-06;80;0;0;0
2011-12-05;82;0;0;0
2011-12-04;29;0;0;0
2011-12-03;25;0;0;0
2011-12-02;20;0;0;0
2011-12-01;9;0;0;0
2011-11-30;28;1;0;0
2011-11-29;36;0;0;0
2011-11-28;35;2;0;0
2011-11-27;22;2;0;0
2011-11-26;20;2;0;0
2011-11-25;35;2;0;0
2011-11-24;46;0;0;0
2011-11-23;36;2;0;0
2011-11-22;39;3;0;0
2011-11-21;36;2;0;0
2011-11-20;25;2;0;0
2011-11-19;59;1;0;0
2011-11-18;42;2;0;0
2011-11-17;50;4;0;0
2011-11-16;31;1;0;0
2011-11-15;68;3;0;0
2011-11-14;55;2;0;0
2011-11-13;24;2;0;0
2011-11-12;47;2;0;0
2011-11-11;82;3;0;0
2011-11-10;59;3;0;0
2011-11-09;62;81;0;0
2011-11-08;65;665;0;0
2011-11-07;72;807;0;0
2011-11-06;28;36;0;0
2011-11-05;37;10;0;0
2011-11-04;69;832;0;0
2011-11-03;51;702;0;0
2011-11-02;40;801;0;0
2011-11-01;30;866;0;0
2011-10-31;36;830;0;0
2011-10-30;26;1;0;0
2011-10-29;36;2;0;0
2011-10-28;44;1;0;0
2011-10-27;50;0;0;0
2011-10-26;2;0;0;0
2011-10-25;7;0;0;0
2011-10-24;4;0;0;0
2011-10-23;21;0;0;0
2011-10-22;28;0;0;0
2011-10-21;19;0;0;0
2011-10-20;22;0;0;0
2011-10-19;13;0;0;0
2011-10-18;4;0;0;0
2011-10-17;4;0;0;0
2011-10-16;14;0;0;0
2011-10-15;27;0;0;0
2011-10-14;24;0;0;0
2011-10-13;39;0;0;0
2011-10-12;24;0;0;0
2011-10-11;23;0;0;0
2011-10-10;23;0;0;0
2011-10-09;33;0;0;0
2011-10-08;29;0;0;0
2011-10-07;42;0;0;0
2011-10-06;50;0;0;0
2011-10-05;53;0;0;0
2011-10-04;41;0;0;0
2011-10-03;66;0;0;0
2011-10-02;38;0;0;0
2011-10-01;18;0;0;0
2011-09-30;16;0;0;0
2011-09-29;33;0;0;0
2011-09-28;46;0;0;0
2011-09-27;14;0;0;0
2011-09-26;16;0;0;0
2011-09-25;26;0;0;0
2011-09-24;32;0;0;0
2011-09-23;40;0;0;0
2011-09-22;28;0;0;0
2011-09-21;43;0;0;0
2011-09-20;34;0;0;0
2011-09-19;33;0;0;0
2011-09-17;27;0;0;0
2011-09-16;36;0;0;0
2011-09-15;32;0;0;0
2011-09-14;42;0;0;0
2011-09-13;51;0;0;0
2011-09-12;36;0;0;0
2011-09-09;44;0;0;0
2011-09-08;46;0;0;0
2011-09-07;32;0;0;0
2011-09-06;67;0;0;0
2011-09-05;70;0;0;0
2011-09-04;37;0;0;0
2011-09-03;33;0;0;0
2011-09-02;26;0;0;0
2011-09-01;43;0;0;0
2011-08-31;46;0;0;0
2011-08-30;37;0;0;0
2011-08-29;43;0;0;0
2011-08-28;35;0;0;0
2011-08-27;50;0;0;0
2011-08-26;35;0;0;0
2011-08-25;44;0;0;0
2011-08-24;21;0;0;0
2011-08-23;12;0;0;0
